Regional Weather Roundup
Issued by NWS

Home | Current Version | Previous Version | Graphics & Text | Print | Product List | Glossary On
Versions: 1 2 3 4 5 6 7 8 9 10 11 12 13 14 15 16 17 18 19 20 21 22 23 24 25 26 27 28 29 30 31 32 33 34 35 36 37 38 39 40 41 42 43 44 45 46 47 48 49 50
000
ASUS43 KMKX 181321
RWRWI

WISCONSIN REGIONAL WEATHER ROUNDUP
NATIONAL WEATHER SERVICE MILWAUKEE/SULLIVAN WI
800 AM CDT FRI APR 18 2014

NOTE: "FAIR" INDICATES FEW OR NO CLOUDS BELOW 12,000 FEET WITH NO
SIGNIFICANT WEATHER AND/OR OBSTRUCTIONS TO VISIBILITY.

WIZ001-002-006>008-014>016-023>028-181400-
NORTHWEST WISCONSIN

CITY           SKY/WX    TMP DP  RH WIND       PRES   REMARKS
SUPERIOR ARPT  MOSUNNY   24  22  92 CALM      30.41R
ASHLAND        CLOUDY    24  22  91 SW3       30.40R
HAYWARD        CLOUDY    22  17  81 CALM      30.38R
SIREN          SUNNY     23  22  94 CALM      30.38S
RICE LAKE      CLOUDY    23  22  95 CALM      30.40R
LADYSMITH      PTSUNNY   27  26  96 CALM      30.39R
EAU CLAIRE     CLOUDY    28  26  92 CALM      30.38R
MENOMONIE      CLOUDY    28  27  94 CALM      30.39R FOG
NEW RICHMOND   CLOUDY    30  30  99 SE3       30.37S
OSCEOLA        CLOUDY    27  26  99 CALM      30.40S
$$

WIZ003>005-009-010-017-018-181400-
NORTH CENTRAL WISCONSIN

CITY           SKY/WX    TMP DP  RH WIND       PRES   REMARKS
WOODRUFF       SUNNY     27  23  86 N3        30.33R
RHINELANDER    SUNNY     28  22  78 N3        30.33R
EAGLE RIVER    PTSUNNY   21  21  98 CALM      30.32S
LAND O LAKES   CLOUDY    27  27  99 CALM      30.32S
PHILLIPS       MOSUNNY  N/A N/A N/A CALM      30.35R
TOMAHAWK       SUNNY     26  25  94 CALM      30.34R
MEDFORD        MOSUNNY   28  25  87 CALM      30.34S
MERRILL        SUNNY     30  25  80 CALM      30.35R
$$

WIZ029-030-035-036-043>047-181400-
CENTRAL WISCONSIN

CITY           SKY/WX    TMP DP  RH WIND       PRES   REMARKS
WAUSAU         MOSUNNY   33  26  75 CALM      30.34R
MOSINEE        SUNNY     34  27  75 NW5       30.36R WCI  30
MARSHFIELD     SUNNY     33  27  78 NW7       30.35R WCI  27
STEVENS POINT  SUNNY     32  24  73 NW7       30.37R WCI  25
WAUPACA        SUNNY     37  27  65 NW6       30.37R WCI  33
WAUTOMA        SUNNY     36  26  67 N5        30.37R WCI  32
WISC RAPIDS    SUNNY     35  26  69 NW5       30.38R WCI  31
CAMP DOUGLAS   MOSUNNY   34  30  86 W3        30.37R
$$

WIZ011>013-019>022-031-037>040-048>050-181400-
NORTHEAST WISCONSIN

CITY           SKY/WX    TMP DP  RH WIND       PRES   REMARKS
ANTIGO         SUNNY     29  24  81 CALM      30.34R
STURGEON BAY   CLOUDY    34  25  69 NW7       30.36S WCI  28
GREEN BAY      CLOUDY    36  26  67 N8        30.37R WCI  30
MANITOWOC      CLOUDY    37  30  75 N8        30.36R WCI  31
APPLETON       PTSUNNY   34  25  69 N6        30.36R WCI  29
CLINTONVILLE   MOSUNNY   34  27  75 NW5       30.36R WCI  30
OSHKOSH        CLOUDY    36  26  67 N8        30.35R WCI  30
$$

WIZ032>034-041-042-053>061-181400-
SOUTHWEST WISCONSIN

CITY           SKY/WX    TMP DP  RH WIND       PRES   REMARKS
LA CROSSE      CLOUDY    34  29  82 CALM      30.39R
SPARTA         SUNNY     28  27  93 CALM      30.39R
VIROQUA        PTSUNNY   33  29  86 NE6       30.35S WCI  27
BOSCOBEL       SUNNY     34  31  88 CALM      30.38S FOG
PRAIRIE DU CHI SUNNY     32  29  90 CALM      30.37S FOG
PLATTEVILLE    FAIR      35  31  87 N10       30.36S WCI  27
$$

WIZ056-057-062-063-064-067-068-181400-
SOUTH CENTRAL WISCONSIN

CITY           SKY/WX    TMP DP  RH WIND       PRES   REMARKS
BARABOO/DELLS  SUNNY     34  28  78 N6        30.36R WCI  29
LONE ROCK      SUNNY     33  29  85 W5        30.38R WCI  29
WATERTOWN      SUNNY     36  31  82 N7        30.34S WCI  30
MADISON        SUNNY     35  31  85 N3        30.37R
MIDDLETON      FAIR      36  32  88 N5        30.37R WCI  32
MONROE         SUNNY     35  35 100 N9        30.34R WCI  28
JANESVILLE     SUNNY     37  32  81 CALM      30.34R
$$

WIZ051-052-058>065-066-070>072-181400-
SOUTHEAST WISCONSIN

CITY           SKY/WX    TMP DP  RH WIND       PRES   REMARKS
MILWAUKEE      PTSUNNY   40  33  76 N10       30.34R WCI  33
WAUKESHA       CLOUDY    36  30  80 N6        30.35R WCI  31
MILWAUKEE/TIMM CLOUDY    37  30  75 N7        30.34R WCI  32
RACINE         SUNNY     40  33  76 N13       30.34R WCI  32
BURLINGTON     PTSUNNY   36  32  85 N8        30.34R WCI  30
KENOSHA        SUNNY     39  34  82 N8        30.33R WCI  33
FOND DU LAC    CLOUDY    36  30  79 N5        30.35R WCI  32
SHEBOYGAN      CLOUDY    37  30  75 N8        30.35R WCI  31
WEST BEND      CLOUDY    36  30  80 N6        30.34R WCI  31
JUNEAU         MOSUNNY   35  29  80 N7        30.36R WCI  29
$$

LSZ147-162-181400-
LAKE SUPERIOR

STATION/POSITION TIME  TEMP    WIND        PRES    WAVE
                       AIR SEA DIR/SP/G            HT/PER
                 (UTC) (F)     (DEG/KT/KT) (MB)    (FT/S)
DEVILS ISLAND    1300   31     320/ 10/ 11 1030.3R
PORT WING        1200   23     160/  2/  3 1028.8R
SAXON HARBOR     1200          180/  2/  4 1028.1R
$$

LMZ867-665-643>646-181400-
LAKE MICHIGAN

STATION/POSITION TIME  TEMP    WIND        PRES    WAVE
                       AIR SEA DIR/SP/G            HT/PER
                 (UTC) (F)     (DEG/KT/KT) (MB)    (FT/S)
NORTHPORT PIER   1200   33     300/  3/  4 1027.4R
SISTER BAY       1223   34        CALM       N/A
KEWAUNEE LAKESHO 1300   36     340/  4/  7 1028.5R
SHEBOYGAN LAKESH 1300   38     360/ 11/ 12 1028.5R
PORT WASHINGTON  1240   39     350/  5/ 10 1028.1R
MILWAUKEE LAKESH 1300   39     350/  9/ 13   N/A
KENOSHA   LAKESH 1300   40      10/ 15/ 17   N/A
$$

TC  - TEMPERATURE IN CELSIUS
VSB - VISIBILITY IN STATUTE MILES
WCI - WIND CHILL INDEX
HX  - HEAT INDEX




USA.gov is the U.S. government's official web portal to all federal, state and local government web resources and services.